This demonstration page uses our WeatherBlox Daily Observations layout. Learn more.

Left ArrowRight Arrow

39.29038, -76.61219

Hourly Observations for November 17, 2020

Temp ( °F °C ) Dew Point ( °F °C ) Humidity (%) Winds ( mph kmh ) Pressure ( in mb ) Visibility ( mi km ) Precip ( " mm )
12:54 am 00:54 Clear 44 6.7 21 -6.1 40 40 SW 5 7 30.04 1017 10 16 0.00 0.00
1:54 am 01:54 Clear 43 6.1 21 -6.1 42 42 WSW 5 7 30.04 1017 10 16 0.00 0.00
2:54 am 02:54 Clear 41 5 22 -5.6 47 47 Calm 30.02 1017 10 16 0.00 0.00
3:54 am 03:54 Clear 38 3.3 25 -3.9 60 60 Calm 30.00 1016 10 16 0.00 0.00
4:54 am 04:54 Mostly Cloudy 40 4.4 23 -5 51 51 Calm 29.98 1015 10 16 0.00 0.00
5:54 am 05:54 Partly Cloudy 42 5.6 22 -5.6 45 45 SSW 5 7 29.96 1015 10 16 0.00 0.00
6:54 am 06:54 Mostly Sunny 41 5 23 -5 49 49 SSW 5 7 29.95 1014 10 16 0.00 0.00
7:54 am 07:54 Mostly Sunny 45 7.2 25 -3.9 46 46 SW 7 11 29.95 1014 10 16 0.00 0.00
8:54 am 08:54 Mostly Sunny 51 10.6 26 -3.3 38 38 WSW 9 15 29.95 1014 10 16 0.00 0.00
9:54 am 09:54 Mostly Sunny 54 12.2 30 -1.1 40 40 W 21 33 29.94 1014 10 16 0.00 0.00
10:54 am 10:54 Partly Cloudy 57 13.9 30 -1.1 36 36 W 23 37 29.95 1014 10 16 0.00 0.00
11:54 am 11:54 Partly Cloudy with Light Rain 52 11.1 30 -1.1 43 43 W 24 39 29.97 1015 9 14 0.00 0.00
12:54 pm 12:54 Partly Cloudy 50 10 27 -2.8 41 41 WNW 25 41 30.01 1016 10 16 0.00 0.00
1:54 pm 13:54 Mostly Cloudy 50 10 28 -2.2 43 43 WNW 16 26 30.03 1017 10 16 0.00 0.00
2:54 pm 14:54 Mostly Cloudy 51 10.6 26 -3.3 38 38 NW 14 22 30.06 1018 10 16 0.00 0.00
3:54 pm 15:54 Partly Cloudy 49 9.4 22 -5.6 35 35 NW 26 43 30.10 1019 10 16 0.00 0.00
4:54 pm 16:54 Partly Cloudy 45 7.2 24 -4.4 44 44 WNW 21 33 30.13 1020 10 16 0.00 0.00
5:54 pm 17:54 Partly Cloudy 44 6.7 23 -5 43 43 WNW 14 22 30.18 1022 10 16 0.00 0.00
6:54 pm 18:54 Partly Cloudy 43 6.1 23 -5 45 45 WNW 15 24 30.21 1023 10 16 0.00 0.00
7:54 pm 19:54 Partly Cloudy 42 5.6 22 -5.6 45 45 WNW 14 22 30.24 1024 10 16 0.00 0.00
8:54 pm 20:54 Partly Cloudy 40 4.4 22 -5.6 49 49 WNW 15 24 30.26 1025 10 16 0.00 0.00
9:54 pm 21:54 Cloudy 40 4.4 22 -5.6 49 49 WNW 15 24 30.29 1026 10 16 0.00 0.00
10:54 pm 22:54 Partly Cloudy 39 3.9 21 -6.1 48 48 WNW 14 22 30.31 1027 10 16 0.00 0.00
11:54 pm 23:54 Mostly Clear 36 2.2 19 -7.2 50 50 WNW 9 15 30.34 1027 10 16 0.00 0.00

Powered by AerisWeather